Location: ?
(35.4554°N, 139.3092°E)
Time: 22:30:14
(UTC+00:00)

Meteor 2-11 Rocket - Pass Details

Date: 21 April 2021
Orbit: 940 x 956 km, 82.5° (Epoch: 10 May)

Event Time Altitude Azimuth Distance (km) Brightness Sun altitude
Rises 19:24:02 0° 350° (N) 3,629 7.6 -8.1°
Reaches altitude 10° 19:26:32 10° 348° (NNW) 2,682 6.9 -7.7°
Maximum altitude 19:32:37 69° 266° (W) 1,018 4.5 -6.5°
Drops below altitude 10° 19:38:41 10° 184° (S) 2,674 6.6 -5.3°
Sets 19:41:11 0° 182° (S) 3,617 7.3 -4.9°
